Location: Dannhausen
(51.8650°N, 10.1026°E)
Time: 08:22:16
(UTC+00:00)

Cosmos 2237 - Pass Details

Date: 09 April 2020
Orbit: 845 x 857 km, 70.8° (Epoch: 24 May)

Event Time Altitude Azimuth Distance (km) Brightness Sun altitude
Rises 22:43:48 0° 329° (NNW) 3,432 8.4 -29.6°
Reaches altitude 10° 22:46:16 10° 331° (NNW) 2,494 7.5 -29.6°
Enters shadow 22:51:39 72° 22° (NNE) 901 4.3 -29.8°
